Temp
-13 -13 -12 -12 -12 -12 -12 -11 -11 -11 -12 -12 -12 -12 -12 -12 -12 -11 -11 -11 -11 -11 -10 -10 -10 -10 -10 -10 -10 -10 -10 -11 -11 -11 -12 -12 -12 -12 -12 -12 -12 -12 -13
-12 -13 -12 -12 -12 -12 -12 -12 -11 -11 -12 -12 -12 -12 -12 -12 -12 -11 -11 -11 -11 -10 -10 -10 -10 -10 -10 -10 -11 -11 -11 -11 -11 -12 -13 -13 -13 -13 -13 -13 -13 -13 -13
-12 -12 -12 -12 -12 -12 -12 -12 -11 -11 -12 -12 -12 -12 -12 -12 -12 -11 -11 -11 -11 -10 -10 -10 -10 -10 -11 -11 -11 -11 -12 -12 -13 -13 -13 -13 -13 -13 -13 -14 -14 -14 -13
-12 -12 -12 -12 -12 -12 -12 -12 -11 -12 -12 -12 -12 -12 -12 -12 -11 -11 -11 -11 -11 -10 -11 -11 -11 -11 -11 -11 -12 -13 -13 -13 -13 -13 -13 -13 -13 -13 -13 -14 -14 -14 -14
-12 -12 -12 -12 -13 -13 -12 -12 -12 -12 -12 -12 -12 -12 -12 -12 -11 -11 -11 -11 -11 -11 -11 -11 -11 -12 -12 -12 -13 -13 -14 -14 -14 -14 -14 -14 -14 -14 -14 -13 -14 -14 -15
-12 -12 -13 -12 -12 -12 -12 -12 -12 -12 -12 -12 -12 -12 -12 -12 -11 -11 -11 -11 -11 -11 -12 -12 -12 -12 -13 -14 -14 -14 -14 -14 -14 -14 -14 -14 -14 -14 -14 -14 -14 -13 -14
-13 -12 -13 -12 -13 -12 -13 -13 -12 -12 -12 -12 -12 -12 -12 -12 -11 -11 -11 -11 -12 -12 -12 -12 -13 -13 -14 -14 -14 -15 -14 -15 -15 -15 -15 -15 -15 -15 -15 -15 -15 -14 -14
-13 -12 -13 -13 -13 -13 -13 -13 -13 -12 -12 -12 -12 -12 -12 -11 -11 -11 -11 -12 -12 -12 -13 -13 -14 -14 -15 -15 -15 -15 -15 -15 -15 -15 -15 -15 -15 -16 -16 -16 -15 -15 -14
-13 -13 -13 -13 -13 -13 -13 -13 -13 -12 -12 -12 -12 -12 -11 -11 -12 -12 -12 -12 -13 -13 -13 -14 -14 -15 -15 -15 -15 -15 -15 -15 -15 -15 -16 -16 -16 -16 -16 -16 -16 -16 -15
-13 -13 -13 -13 -13 -13 -13 -13 -12 -12 -12 -12 -12 -12 -12 -12 -12 -12 -12 -13 -13 -13 -14 -15 -15 -15 -15 -15 -15 -16 -16 -16 -16 -16 -16 -16 -16 -17 -17 -16 -17 -17 -16
-13 -13 -12 -12 -12 -13 -13 -13 -12 -12 -12 -12 -12 -12 -12 -12 -13 -13 -13 -13 -14 -14 -15 -15 -15 -16 -16 -16 -16 -16 -16 -16 -16 -17 -17 -17 -17 -17 -17 -17 -17 -17 -17
-13 -13 -13 -12 -13 -13 -13 -13 -12 -12 -12 -12 -13 -13 -13 -13 -13 -13 -14 -14 -15 -15 -15 -16 -16 -16 -16 -16 -16 -16 -16 -17 -17 -17 -17 -17 -17 -17 -17 -17 -17 -17 -18
-13 -13 -12 -12 -13 -13 -13 -13 -12 -12 -13 -13 -13 -13 -13 -13 -14 -14 -14 -15 -15 -15 -16 -16 -16 -16 -16 -17 -17 -17 -17 -17 -17 -17 -17 -17 -17 -17 -17 -17 -17 -18 -19
-14 -13 -13 -13 -13 -13 -13 -13 -13 -13 -13 -13 -13 -13 -14 -14 -14 -15 -15 -15 -16 -16 -16 -16 -16 -17 -17 -17 -17 -17 -17 -18 -18 -18 -18 -18 -17 -17 -18 -18 -18 -20 -22
-14 -13 -13 -13 -13 -13 -13 -13 -13 -13 -13 -13 -13 -14 -14 -15 -15 -15 -16 -16 -16 -16 -17 -17 -17 -17 -17 -17 -17 -17 -18 -18 -18 -18 -18 -18 -18 -18 -18 -19 -21 -24 -25
-14 -13 -13 -13 -13 -13 -13 -13 -13 -13 -13 -14 -14 -14 -15 -15 -15 -16 -16 -16 -17 -17 -17 -17 -17 -17 -17 -17 -18 -18 -18 -18 -18 -18 -18 -18 -18 -19 -20 -23 -24 -25 -27
-14 -14 -14 -14 -14 -13 -13 -13 -13 -13 -14 -14 -15 -15 -15 -16 -16 -16 -17 -17 -17 -17 -17 -18 -18 -18 -18 -18 -18 -18 -18 -18 -18 -18 -18 -19 -19 -20 -23 -24 -25 -27 -27
-14 -14 -14 -14 -14 -14 -14 -13 -14 -14 -14 -15 -15 -16 -16 -16 -16 -17 -17 -17 -17 -18 -18 -18 -18 -18 -18 -18 -18 -18 -18 -18 -18 -19 -20 -20 -21 -24 -24 -25 -27 -27 -27
-15 -14 -14 -14 -14 -14 -14 -14 -14 -15 -15 -15 -16 -16 -16 -16 -17 -17 -17 -18 -18 -18 -18 -18 -18 -18 -18 -18 -18 -18 -18 -18 -19 -20 -20 -22 -23 -25 -25 -26 -27 -27 -27
-15 -14 -14 -14 -14 -14 -14 -15 -15 -15 -16 -16 -16 -16 -16 -17 -17 -17 -18 -18 -18 -18 -18 -18 -18 -18 -18 -18 -18 -18 -18 -19 -20 -21 -23 -24 -25 -26 -26 -26 -26 -26 -26
-14 -14 -14 -14 -14 -14 -15 -15 -15 -16 -16 -16 -16 -17 -17 -17 -17 -18 -18 -18 -18 -18 -18 -18 -19 -18 -18 -18 -18 -19 -19 -20 -21 -22 -24 -25 -26 -26 -26 -26 -26 -26 -26
-14 -14 -14 -14 -15 -15 -15 -15 -16 -16 -16 -16 -17 -17 -17 -18 -18 -18 -18 -18 -19 -19 -19 -19 -18 -18 -18 -19 -19 -20 -21 -22 -23 -25 -25 -26 -26 -26 -26 -26 -26 -26 -26
-15 -15 -15 -15 -15 -15 -15 -16 -16 -16 -17 -17 -17 -17 -18 -18 -18 -18 -19 -19 -19 -19 -19 -18 -18 -18 -19 -19 -20 -21 -22 -24 -25 -25 -26 -26 -26 -26 -26 -26 -26 -26 -26
-15 -15 -15 -15 -15 -15 -16 -16 -16 -17 -17 -17 -17 -18 -18 -18 -18 -19 -19 -19 -19 -19 -18 -18 -18 -19 -19 -20 -21 -22 -23 -24 -25 -26 -26 -27 -26 -25 -26 -26 -26 -26 -26
-15 -15 -15 -15 -15 -16 -16 -16 -17 -17 -17 -18 -18 -18 -18 -19 -19 -19 -19 -19 -19 -18 -18 -19 -19 -19 -20 -20 -21 -23 -25 -25 -26 -26 -27 -26 -26 -26 -26 -26 -26 -26 -26
-15 -15 -15 -16 -16 -16 -16 -17 -17 -17 -18 -18 -18 -18 -19 -19 -19 -19 -19 -19 -19 -18 -19 -19 -20 -20 -21 -22 -24 -25 -26 -26 -26 -26 -26 -26 -26 -26 -26 -26 -27 -26 -27
Height
5735 5740 5744 5746 5748 5750 5752 5756 5757 5759 5761 5763 5765 5767 5767 5768 5768 5768 5768 5768 5766 5764 5761 5758 5756 5754 5751 5747 5744 5740 5737 5733 5731 5727 5722 5717 5713 5710 5706 5701 5697 5692 5688
5726 5732 5737 5739 5742 5743 5745 5749 5752 5753 5754 5756 5758 5761 5762 5762 5763 5763 5762 5761 5759 5756 5753 5750 5749 5746 5742 5738 5734 5730 5726 5721 5718 5714 5712 5710 5705 5700 5695 5690 5686 5681 5676
5720 5725 5730 5732 5734 5737 5739 5742 5744 5747 5748 5750 5752 5755 5756 5756 5756 5756 5755 5753 5751 5747 5745 5742 5740 5736 5732 5728 5724 5720 5716 5711 5706 5702 5699 5695 5694 5691 5688 5681 5674 5669 5663
5714 5718 5723 5726 5727 5730 5733 5735 5737 5739 5741 5743 5745 5747 5749 5749 5748 5748 5747 5745 5742 5740 5736 5733 5730 5726 5723 5718 5713 5709 5704 5700 5695 5689 5684 5679 5674 5670 5671 5670 5662 5656 5649
5705 5711 5716 5717 5718 5723 5726 5728 5731 5733 5735 5737 5738 5740 5741 5741 5741 5741 5739 5737 5734 5730 5727 5724 5720 5717 5712 5707 5702 5697 5692 5688 5683 5678 5672 5666 5659 5652 5647 5646 5645 5640 5632
5697 5703 5708 5710 5712 5716 5719 5723 5725 5727 5729 5730 5732 5733 5734 5735 5734 5733 5731 5728 5725 5721 5718 5715 5711 5707 5702 5697 5692 5687 5681 5676 5670 5664 5658 5651 5645 5638 5630 5625 5620 5614 5613
5687 5695 5701 5705 5707 5710 5713 5717 5720 5722 5723 5724 5726 5727 5727 5727 5726 5724 5722 5720 5716 5713 5709 5706 5702 5698 5693 5688 5683 5676 5670 5664 5657 5651 5644 5636 5628 5619 5611 5604 5600 5594 5589
5679 5687 5693 5697 5700 5703 5708 5711 5713 5715 5717 5718 5720 5720 5720 5719 5718 5716 5714 5711 5708 5704 5700 5697 5692 5688 5683 5678 5672 5665 5659 5652 5645 5637 5629 5621 5612 5603 5594 5583 5574 5571 5566
5672 5680 5685 5690 5694 5698 5703 5705 5707 5710 5711 5712 5713 5713 5713 5712 5710 5708 5705 5703 5700 5696 5692 5688 5683 5678 5673 5667 5660 5653 5646 5638 5631 5623 5614 5606 5597 5588 5576 5565 5552 5538 5535
5665 5672 5676 5682 5687 5692 5697 5699 5702 5704 5705 5706 5706 5706 5706 5704 5702 5700 5698 5695 5691 5687 5683 5678 5673 5667 5661 5655 5648 5640 5632 5625 5616 5608 5600 5591 5581 5571 5559 5546 5531 5514 5496
5659 5667 5672 5676 5682 5687 5691 5693 5696 5698 5699 5700 5700 5700 5699 5697 5694 5692 5689 5685 5681 5677 5673 5668 5662 5656 5649 5643 5636 5628 5619 5610 5602 5593 5584 5574 5563 5553 5539 5524 5509 5491 5467
5653 5661 5665 5671 5676 5681 5685 5688 5690 5692 5693 5694 5694 5692 5691 5689 5686 5684 5680 5676 5672 5668 5663 5657 5651 5645 5638 5631 5623 5614 5605 5596 5587 5578 5568 5557 5544 5531 5516 5500 5483 5462 5440
5649 5655 5660 5666 5672 5676 5679 5682 5684 5686 5686 5686 5686 5685 5683 5680 5677 5674 5670 5666 5662 5657 5652 5646 5640 5633 5626 5617 5609 5600 5591 5582 5572 5561 5550 5537 5522 5508 5490 5472 5451 5431 5410
5646 5651 5656 5662 5667 5672 5674 5677 5678 5679 5679 5679 5678 5677 5674 5672 5668 5665 5661 5657 5652 5646 5641 5635 5628 5621 5612 5604 5595 5586 5577 5567 5556 5543 5529 5515 5498 5480 5461 5442 5419 5399 5381
5643 5647 5653 5659 5664 5667 5669 5671 5672 5673 5673 5672 5670 5668 5666 5663 5659 5655 5651 5647 5641 5636 5631 5624 5616 5608 5600 5591 5583 5574 5564 5552 5539 5525 5510 5493 5474 5454 5431 5408 5391 5372 5357
5640 5645 5651 5656 5659 5662 5664 5665 5666 5666 5666 5664 5662 5660 5657 5654 5650 5646 5642 5637 5632 5626 5619 5612 5604 5595 5587 5579 5569 5559 5548 5534 5519 5506 5490 5470 5449 5429 5407 5386 5369 5351 5332
5639 5643 5648 5652 5655 5657 5658 5659 5660 5659 5658 5657 5655 5652 5649 5645 5641 5637 5632 5627 5621 5615 5608 5600 5591 5583 5574 5565 5554 5543 5530 5515 5499 5482 5464 5446 5424 5403 5385 5370 5355 5339 5324
5637 5642 5646 5648 5650 5652 5653 5653 5653 5652 5651 5649 5646 5643 5640 5636 5633 5628 5623 5617 5611 5604 5596 5587 5579 5570 5561 5551 5540 5527 5514 5498 5480 5459 5439 5420 5401 5382 5366 5354 5342 5328 5317
5635 5639 5642 5644 5646 5647 5647 5646 5646 5644 5643 5641 5638 5635 5632 5628 5623 5618 5613 5607 5600 5592 5583 5575 5566 5557 5547 5536 5523 5510 5496 5480 5461 5440 5417 5395 5381 5366 5352 5340 5331 5322 5313
5632 5635 5637 5639 5639 5639 5639 5639 5638 5637 5635 5633 5630 5627 5623 5618 5614 5609 5603 5596 5589 5580 5572 5563 5553 5543 5532 5518 5506 5491 5475 5460 5443 5421 5397 5380 5364 5351 5341 5332 5324 5317 5310
5629 5631 5633 5633 5634 5634 5633 5632 5631 5629 5627 5624 5621 5618 5614 5609 5604 5599 5593 5585 5576 5569 5561 5552 5541 5528 5515 5501 5486 5471 5454 5437 5419 5398 5382 5367 5353 5342 5334 5326 5319 5312 5305
5625 5627 5628 5628 5628 5628 5627 5626 5624 5622 5619 5616 5613 5609 5605 5600 5595 5588 5581 5574 5566 5558 5549 5540 5527 5513 5499 5483 5468 5451 5432 5412 5394 5380 5366 5354 5342 5334 5327 5320 5314 5307 5301
5621 5622 5622 5623 5623 5622 5621 5619 5617 5614 5611 5608 5604 5600 5596 5590 5584 5577 5570 5562 5555 5546 5537 5526 5514 5501 5485 5468 5451 5432 5411 5393 5379 5364 5352 5342 5333 5327 5321 5314 5308 5303 5298
5616 5617 5618 5618 5617 5615 5614 5612 5609 5607 5603 5599 5595 5591 5586 5580 5574 5567 5560 5552 5543 5534 5523 5512 5500 5486 5469 5452 5433 5414 5395 5380 5367 5354 5343 5334 5327 5321 5314 5309 5303 5298 5292
5613 5613 5612 5611 5610 5608 5606 5604 5601 5598 5594 5590 5586 5581 5576 5570 5563 5556 5549 5540 5530 5520 5509 5496 5483 5468 5451 5433 5413 5394 5380 5367 5355 5345 5336 5329 5322 5317 5310 5303 5297 5292 5286
5608 5607 5606 5605 5603 5601 5598 5595 5592 5589 5585 5581 5577 5572 5566 5560 5553 5546 5537 5527 5517 5504 5491 5478 5463 5448 5429 5412 5395 5382 5367 5355 5346 5338 5331 5325 5319 5313 5307 5301 5293 5286 5280
Wind_Speed
40 40 36 33 32 31 32 29 26 24 28 28 27 24 25 25 24 26 27 29 30 31 31 30 33 35 37 39 41 43 45 46 46 48 48 48 47 47 48 50 51 54 56
39 40 38 32 32 32 34 32 27 27 27 32 31 26 26 26 28 28 28 29 31 31 32 33 37 39 42 43 45 47 49 51 50 48 45 43 46 49 51 53 56 59 61
36 39 40 35 33 32 32 30 27 26 27 31 32 30 28 29 28 28 29 31 32 33 35 38 40 43 45 46 48 48 47 47 47 47 48 49 49 50 52 57 59 61 63
38 36 41 34 33 33 32 28 28 25 24 26 28 28 28 30 29 29 31 33 35 37 39 41 43 45 47 48 48 47 46 47 48 52 54 56 59 60 58 57 60 63 64
39 35 40 34 35 31 31 28 27 26 26 25 25 27 30 30 31 32 34 35 38 39 41 43 44 47 49 48 47 48 49 50 52 54 57 61 63 65 67 65 66 64 62
40 36 41 35 36 30 30 28 27 27 27 26 28 31 32 32 32 34 36 38 39 40 42 44 46 48 48 48 48 50 51 54 57 60 62 63 65 68 70 71 71 72 69
43 38 39 32 32 28 29 29 27 26 25 25 27 31 32 33 33 35 37 38 39 42 43 46 47 47 47 48 50 52 54 58 61 61 63 68 70 69 69 71 72 74 75
42 40 37 33 32 29 30 27 25 25 25 24 26 29 30 31 33 35 37 39 41 43 45 46 47 47 48 50 52 55 58 60 60 64 68 67 66 67 72 77 81 82 84
41 39 35 32 34 30 30 27 25 26 24 25 27 28 30 32 33 34 38 40 43 45 46 47 48 48 50 52 55 58 58 62 66 67 64 64 67 72 78 84 90 96 96
37 40 35 33 34 31 31 28 27 25 25 27 27 30 31 32 33 36 39 41 43 45 47 47 48 50 52 55 56 57 63 66 66 64 64 67 73 79 84 90 97 104 110
37 34 33 32 31 30 30 28 27 27 27 28 29 31 31 33 35 37 39 42 44 46 46 47 49 51 54 54 58 63 66 64 63 65 68 74 79 85 91 98 104 111 119
34 31 30 30 29 29 28 26 26 27 27 29 30 30 32 33 36 38 41 43 45 46 47 50 51 53 54 59 63 66 64 63 65 69 75 81 86 92 99 106 112 118 124
31 30 29 29 30 29 27 25 25 26 27 28 29 30 33 35 37 40 43 44 44 46 49 50 51 54 59 63 66 63 63 66 71 76 81 87 93 101 107 113 119 123 117
29 28 27 27 27 25 24 23 24 25 27 28 30 31 34 37 39 42 43 43 45 47 49 50 55 58 63 65 62 63 66 71 76 81 88 95 102 108 114 119 120 109 98
25 25 25 24 23 22 22 23 24 26 27 29 31 34 36 38 40 40 41 44 46 48 50 53 57 62 64 61 63 66 70 75 81 88 94 101 107 113 120 115 102 92 85
23 22 20 21 20 21 21 22 24 27 29 31 33 35 37 38 38 40 43 45 47 50 53 57 62 63 61 62 66 70 74 80 87 93 100 105 112 117 109 94 87 81 74
21 20 20 20 20 21 22 24 26 29 31 32 33 35 36 37 39 41 44 46 49 52 57 61 61 60 62 65 69 74 79 86 94 100 105 111 114 103 88 82 75 65 61
18 18 19 20 21 22 23 25 27 28 29 31 33 34 36 38 40 42 46 47 52 55 61 59 59 62 65 68 73 79 85 92 98 104 110 112 99 84 79 70 57 49 41
19 18 19 21 21 23 23 23 25 27 29 30 32 35 37 40 41 44 46 51 54 59 58 59 61 64 68 73 79 85 90 97 102 107 109 96 84 75 68 53 45 39 34
17 17 17 18 19 20 21 23 26 28 30 31 34 37 38 40 43 45 50 53 57 57 57 60 63 67 72 79 85 91 96 100 105 106 90 79 74 65 52 43 37 33 32
17 18 19 20 20 21 22 24 26 29 32 34 36 37 39 42 44 47 52 55 55 56 58 61 65 73 79 85 90 96 100 105 105 88 76 69 61 51 42 37 33 34 24
20 19 19 20 20 21 24 26 28 30 31 32 35 38 40 43 47 51 53 53 53 55 59 63 70 77 83 89 94 98 104 103 87 74 68 59 48 40 35 33 33 24 27
16 16 16 19 22 23 25 27 28 30 32 34 37 39 42 46 49 50 50 51 54 57 62 68 73 79 87 92 96 101 100 84 73 68 60 47 40 35 32 32 25 28 24
16 17 17 20 22 23 25 27 29 31 34 36 38 41 45 45 49 48 49 52 55 61 67 72 76 84 90 95 99 99 82 72 67 59 46 38 34 32 32 28 29 27 28
12 15 17 19 21 23 25 27 30 33 35 38 40 42 44 47 46 48 51 55 61 66 70 75 83 89 94 99 99 82 71 67 59 46 37 32 30 30 30 31 31 33 34
12 15 16 19 22 25 27 29 32 35 37 38 39 43 45 44 46 49 54 60 64 69 75 82 89 94 98 96 79 68 66 59 48 36 29 28 28 27 28 31 34 34 33
Wind_Direction
242 236 237 243 247 247 243 249 250 254 242 237 240 248 259 261 261 261 265 269 278 286 289 291 291 290 290 291 291 292 291 290 289 290 291 291 292 293 293 293 294 294 295
240 235 234 239 243 245 241 246 247 250 247 239 242 249 260 261 261 265 268 276 284 289 292 294 294 295 295 295 295 296 295 295 295 295 294 291 292 294 295 296 297 296 297
242 236 232 234 239 244 242 244 250 250 248 242 243 253 256 260 264 269 273 281 287 290 292 293 293 294 295 294 293 294 295 295 296 296 296 294 293 292 294 296 296 297 297
241 241 232 235 238 240 240 243 248 253 248 242 244 250 256 262 268 273 278 284 288 291 292 293 294 295 295 295 296 297 298 300 301 301 301 300 299 298 296 296 296 295 294
234 241 230 228 234 235 235 241 250 252 250 245 247 253 257 264 271 275 280 285 287 291 293 294 295 296 297 298 300 302 302 301 300 300 301 300 300 301 301 299 297 296 296
228 236 228 224 232 234 231 237 246 250 251 250 253 257 261 266 270 275 282 285 289 292 293 295 296 298 298 301 302 302 302 303 301 300 300 300 300 300 300 299 298 297 297
225 231 226 223 232 232 227 231 239 244 249 253 257 259 262 266 272 279 282 286 289 291 294 296 296 297 300 302 302 302 302 300 300 301 301 302 302 302 302 301 301 302 302
222 224 217 218 225 221 224 229 237 244 249 254 258 261 266 272 276 281 285 288 291 294 294 295 296 299 301 301 300 300 300 300 300 301 303 303 303 304 304 304 304 303 303
216 217 213 214 223 224 227 231 238 245 251 256 260 265 269 273 279 284 287 290 292 292 293 295 298 299 300 300 301 301 300 302 304 305 304 303 304 305 305 305 306 306 305
215 210 205 211 221 226 230 231 239 248 253 258 263 267 271 276 281 284 287 289 290 293 295 298 299 299 300 301 301 301 303 305 305 304 304 305 306 306 306 307 307 306 306
205 212 207 211 219 223 227 231 238 245 252 259 264 268 274 278 282 286 288 290 293 295 298 298 299 300 301 301 302 304 306 306 304 305 306 306 306 307 307 307 307 307 307
200 202 202 210 214 220 226 230 238 246 253 260 266 271 277 282 286 287 289 292 295 296 297 299 300 301 301 303 306 307 306 305 306 306 307 307 307 308 309 309 309 310 310
199 199 201 209 217 224 228 233 242 251 258 264 269 275 281 285 286 289 292 294 296 299 300 300 300 301 304 306 308 307 307 307 307 308 309 309 310 311 310 311 312 311 310
201 200 203 210 216 221 228 237 247 254 259 267 274 279 282 285 288 290 294 297 299 300 301 300 302 305 307 308 307 307 307 309 310 311 312 313 313 313 314 314 313 311 310
186 190 198 206 213 223 231 238 248 258 266 273 278 280 283 287 290 294 296 300 301 301 302 304 305 306 308 308 307 307 310 311 313 314 315 315 315 315 316 315 313 312 312
184 190 200 210 218 227 237 248 256 265 274 276 279 283 284 288 293 297 300 301 300 302 304 305 307 308 307 307 309 312 313 315 316 316 316 316 317 317 316 313 314 315 314
186 194 205 217 227 237 249 261 269 273 275 279 281 283 288 292 296 298 300 301 302 304 306 307 307 307 308 310 314 315 317 317 317 318 317 318 318 316 315 315 317 316 313
198 209 221 233 243 253 262 268 271 275 277 279 282 286 292 295 295 298 300 302 304 305 306 307 307 308 312 315 316 317 318 318 318 318 319 319 317 316 316 318 321 319 319
211 220 231 241 251 259 265 270 273 277 279 283 288 291 292 295 296 299 300 303 304 306 307 308 310 314 315 316 317 318 319 319 319 319 320 318 317 317 319 322 324 324 323
225 232 242 254 261 267 271 273 276 279 282 286 290 294 295 296 296 298 301 304 306 307 308 312 315 316 317 318 318 320 320 319 319 321 319 318 319 319 320 324 325 324 322
231 241 252 259 263 265 268 273 280 285 288 291 293 293 295 296 297 301 303 305 308 309 313 315 317 318 320 320 321 320 319 319 321 321 320 319 319 318 321 323 322 323 323
241 249 254 257 260 268 278 283 286 288 290 292 293 294 296 300 302 303 305 307 309 313 315 317 319 320 321 321 321 320 320 322 322 321 320 321 318 320 322 320 323 321 321
240 246 255 265 273 278 281 285 289 291 291 292 295 299 300 301 304 306 308 310 313 315 317 319 320 322 323 322 321 321 323 322 322 322 322 322 321 321 320 322 323 321 318
251 260 266 274 279 285 289 290 291 293 294 296 298 300 302 305 307 308 311 313 316 318 319 320 321 324 323 323 322 323 323 323 323 323 323 321 321 321 324 327 328 326 324
259 270 277 284 287 289 291 293 296 298 299 300 300 304 306 308 310 313 316 318 319 319 320 322 324 326 325 324 324 324 324 324 324 325 325 322 324 326 325 324 323 322 320
280 286 290 293 294 295 295 298 301 300 300 302 305 306 308 310 314 317 319 319 319 320 323 324 326 327 324 325 324 326 325 324 325 327 327 325 325 324 323 320 320 321 323